Time,TemperatureF,DewpointF,PressureIn,WindDirection,WindDirectionDegrees,WindSpeedMPH,WindSpeedGustMPH,Humidity,HourlyPrecipIn,Conditions,Clouds,dailyrainin,SolarRadiationWatts/m^2,SoftwareType,DateUTC
2013-01-22 00:02:00,-16.7,-21.8,30.38,SW,215,0.0,0.0,77,0.00,CLR,,0.00,0.0,WeatherDisplay:10.37,2013-01-22 06:02:00,
2013-01-22 00:07:00,-17.0,-22.1,30.37,SW,215,0.0,0.0,77,0.00,CLR,,0.00,0.0,WeatherDisplay:10.37,2013-01-22 06:07:00,
2013-01-22 00:12:00,-17.1,-22.1,30.37,SW,215,0.0,0.0,77,0.00,CLR,,0.00,0.0,WeatherDisplay:10.37,2013-01-22 06:12:00,
2013-01-22 00:17:00,-17.4,-22.4,30.37,SW,215,0.0,0.0,77,0.00,CLR,,0.00,0.0,WeatherDisplay:10.37,2013-01-22 06:17:00,
2013-01-22 00:22:00,-17.5,-22.5,30.37,SW,215,0.0,0.0,77,0.00,CLR,,0.00,0.0,WeatherDisplay:10.37,2013-01-22 06:22:00,
2013-01-22 00:27:00,-17.5,-22.8,30.37,SW,215,0.0,0.0,76,0.00,CLR,,0.00,0.0,WeatherDisplay:10.37,2013-01-22 06:27:00,
2013-01-22 00:32:00,-17.6,-22.6,30.38,SW,215,0.0,0.0,77,0.00,CLR,,0.00,0.0,WeatherDisplay:10.37,2013-01-22 06:32:00,
2013-01-22 00:37:00,-17.7,-22.7,30.38,SW,215,0.0,0.0,77,0.00,CLR,,0.00,0.0,WeatherDisplay:10.37,2013-01-22 06:37:00,
2013-01-22 00:42:00,-17.7,-22.7,30.38,SW,215,0.0,0.0,77,0.00,CLR,,0.00,0.0,WeatherDisplay:10.37,2013-01-22 06:42:00,
2013-01-22 00:47:00,-17.8,-22.8,30.38,SW,215,0.0,0.0,77,0.00,CLR,,0.00,0.0,WeatherDisplay:10.37,2013-01-22 06:47:00,
2013-01-22 00:52:00,-18.0,-23.0,30.38,SW,215,0.0,0.0,77,0.00,CLR,,0.00,0.0,WeatherDisplay:10.37,2013-01-22 06:52:00,
2013-01-22 00:57:00,-18.1,-23.4,30.38,SW,215,0.0,0.0,76,0.00,CLR,,0.00,0.0,WeatherDisplay:10.37,2013-01-22 06:57:00,
2013-01-22 01:02:00,-18.3,-23.6,30.38,SW,215,0.0,0.0,76,0.00,CLR,,0.00,0.0,WeatherDisplay:10.37,2013-01-22 07:02:00,
2013-01-22 01:07:00,-18.5,-23.8,30.38,SW,215,0.0,0.0,76,0.00,CLR,,0.00,0.0,WeatherDisplay:10.37,2013-01-22 07:07:00,
2013-01-22 01:12:00,-18.8,-24.1,30.38,SW,215,0.0,0.0,76,0.00,CLR,,0.00,0.0,WeatherDisplay:10.37,2013-01-22 07:12:00,
2013-01-22 01:17:00,-19.0,-24.2,30.38,SW,215,0.0,0.0,76,0.00,CLR,,0.00,0.0,WeatherDisplay:10.37,2013-01-22 07:17:00,
2013-01-22 01:22:00,-19.2,-24.4,30.38,SW,215,0.0,0.0,76,0.00,CLR,,0.00,0.0,WeatherDisplay:10.37,2013-01-22 07:22:00,
2013-01-22 01:27:00,-19.2,-24.4,30.39,SW,215,0.0,0.0,76,0.00,CLR,,0.00,0.0,WeatherDisplay:10.37,2013-01-22 07:27:00,
2013-01-22 01:32:00,-19.3,-24.5,30.39,SW,215,0.0,0.0,76,0.00,CLR,,0.00,0.0,WeatherDisplay:10.37,2013-01-22 07:32:00,
2013-01-22 01:37:00,-19.3,-24.3,30.39,SW,215,0.0,0.0,77,0.00,CLR,,0.00,0.0,WeatherDisplay:10.37,2013-01-22 07:37:00,
2013-01-22 01:42:00,-19.5,-24.5,30.39,SW,215,0.0,0.0,77,0.00,CLR,,0.00,0.0,WeatherDisplay:10.37,2013-01-22 07:42:00,
2013-01-22 01:47:00,-19.4,-24.4,30.39,SW,215,0.0,0.0,77,0.00,CLR,,0.00,0.0,WeatherDisplay:10.37,2013-01-22 07:47:00,
2013-01-22 01:52:00,-19.4,-24.4,30.40,SW,215,0.0,0.0,77,0.00,CLR,,0.00,0.0,WeatherDisplay:10.37,2013-01-22 07:52:00,
2013-01-22 01:57:00,-19.3,-24.3,30.40,SW,215,0.0,0.0,77,0.00,CLR,,0.00,0.0,WeatherDisplay:10.37,2013-01-22 07:57:00,
2013-01-22 02:02:00,-19.2,-24.2,30.40,SW,215,0.0,0.0,77,0.00,CLR,,0.00,0.0,WeatherDisplay:10.37,2013-01-22 08:02:00,
2013-01-22 02:07:00,-19.1,-24.1,30.40,SW,215,0.0,0.0,77,0.00,CLR,,0.00,0.0,WeatherDisplay:10.37,2013-01-22 08:07:00,
2013-01-22 02:13:00,-19.0,-23.8,30.40,SW,215,0.0,0.0,78,0.00,CLR,,0.00,0.0,WeatherDisplay:10.37,2013-01-22 08:13:00,
2013-01-22 02:18:00,-18.9,-23.7,30.40,SW,215,0.0,0.0,78,0.00,CLR,,0.00,0.0,WeatherDisplay:10.37,2013-01-22 08:18:00,
2013-01-22 02:23:00,-18.6,-23.4,30.40,SW,215,0.0,0.0,78,0.00,CLR,,0.00,0.0,WeatherDisplay:10.37,2013-01-22 08:23:00,
2013-01-22 02:28:00,-18.4,-23.2,30.40,SW,215,0.0,0.0,78,0.00,CLR,,0.00,0.0,WeatherDisplay:10.37,2013-01-22 08:28:00,
2013-01-22 02:33:00,-18.1,-22.6,30.41,NNW,327,0.0,0.0,79,0.00,CLR,,0.00,0.0,WeatherDisplay:10.37,2013-01-22 08:33:00,
2013-01-22 02:38:00,-17.8,-22.3,30.41,West,268,0.0,0.1,79,0.00,CLR,,0.00,0.0,WeatherDisplay:10.37,2013-01-22 08:38:00,
2013-01-22 02:43:00,-17.4,-22.0,30.41,West,268,0.0,0.0,79,0.00,CLR,,0.00,0.0,WeatherDisplay:10.37,2013-01-22 08:43:00,
2013-01-22 02:48:00,-17.0,-21.3,30.41,West,268,0.0,0.0,80,0.00,CLR,,0.00,0.0,WeatherDisplay:10.37,2013-01-22 08:48:00,
2013-01-22 02:53:00,-16.6,-20.9,30.41,West,268,0.0,0.0,80,0.00,CLR,,0.00,0.0,WeatherDisplay:10.37,2013-01-22 08:53:00,
2013-01-22 02:58:00,-16.4,-20.7,30.41,West,268,0.0,0.0,80,0.00,CLR,,0.00,0.0,WeatherDisplay:10.37,2013-01-22 08:58:00,
2013-01-22 03:03:00,-16.1,-20.7,30.41,West,268,0.0,0.0,79,0.00,CLR,,0.00,0.0,WeatherDisplay:10.37,2013-01-22 09:03:00,
2013-01-22 03:08:00,-15.9,-20.5,30.41,West,268,0.0,0.0,79,0.00,CLR,,0.00,0.0,WeatherDisplay:10.37,2013-01-22 09:08:00,
2013-01-22 03:13:00,-15.7,-20.3,30.41,West,268,0.0,0.0,79,0.00,CLR,,0.00,0.0,WeatherDisplay:10.37,2013-01-22 09:13:00,
2013-01-22 03:18:00,-15.7,-20.5,30.42,West,268,0.0,0.0,78,0.00,CLR,,0.00,0.0,WeatherDisplay:10.37,2013-01-22 09:18:00,
2013-01-22 03:23:00,-15.6,-20.4,30.42,West,268,0.0,0.0,78,0.00,CLR,,0.00,0.0,WeatherDisplay:10.37,2013-01-22 09:23:00,
2013-01-22 03:28:00,-15.6,-20.4,30.42,West,273,0.0,0.0,78,0.00,CLR,,0.00,0.0,WeatherDisplay:10.37,2013-01-22 09:28:00,
2013-01-22 03:33:00,-15.5,-20.3,30.42,West,270,0.0,0.0,78,0.00,CLR,,0.00,0.0,WeatherDisplay:10.37,2013-01-22 09:33:00,
2013-01-22 03:38:00,-15.4,-20.2,30.42,West,275,0.0,0.0,78,0.00,CLR,,0.00,0.0,WeatherDisplay:10.37,2013-01-22 09:38:00,
2013-01-22 03:43:00,-15.4,-20.5,30.42,West,279,0.0,0.0,77,0.00,CLR,,0.00,0.0,WeatherDisplay:10.37,2013-01-22 09:43:00,
2013-01-22 03:48:00,-15.4,-20.5,30.42,NW,315,0.0,0.0,77,0.00,CLR,,0.00,0.0,WeatherDisplay:10.37,2013-01-22 09:48:00,
2013-01-22 03:53:00,-15.3,-20.4,30.42,NW,315,0.0,0.0,77,0.00,CLR,,0.00,0.0,WeatherDisplay:10.37,2013-01-22 09:53:00,
2013-01-22 03:58:00,-15.3,-20.4,30.42,NW,315,0.0,0.0,77,0.00,CLR,,0.00,0.0,WeatherDisplay:10.37,2013-01-22 09:58:00,
2013-01-22 04:03:00,-15.3,-20.4,30.42,WNW,291,0.0,0.0,77,0.00,CLR,,0.00,0.0,WeatherDisplay:10.37,2013-01-22 10:03:00,
2013-01-22 04:08:00,-15.3,-20.4,30.42,WNW,291,0.0,0.0,77,0.00,CLR,,0.00,0.0,WeatherDisplay:10.37,2013-01-22 10:08:00,
2013-01-22 04:13:00,-15.4,-20.5,30.42,WNW,291,0.0,0.0,77,0.00,CLR,,0.00,0.0,WeatherDisplay:10.37,2013-01-22 10:13:00,
2013-01-22 04:18:00,-15.5,-20.6,30.42,West,265,0.0,0.0,77,0.00,CLR,,0.00,0.0,WeatherDisplay:10.37,2013-01-22 10:18:00,
2013-01-22 04:23:00,-15.6,-20.9,30.42,West,262,0.0,0.0,76,0.00,CLR,,0.00,0.0,WeatherDisplay:10.37,2013-01-22 10:23:00,
2013-01-22 04:28:00,-15.6,-20.7,30.42,West,269,0.0,0.0,77,0.00,CLR,,0.00,0.0,WeatherDisplay:10.37,2013-01-22 10:28:00,
2013-01-22 04:33:00,-15.5,-20.6,30.42,WNW,286,0.0,0.0,77,0.00,CLR,,0.00,0.0,WeatherDisplay:10.37,2013-01-22 10:33:00,
2013-01-22 04:38:00,-15.6,-20.7,30.42,WNW,286,0.0,0.0,77,0.00,CLR,,0.00,0.0,WeatherDisplay:10.37,2013-01-22 10:38:00,
2013-01-22 04:43:00,-15.6,-20.7,30.42,WNW,286,0.0,0.0,77,0.00,CLR,,0.00,0.0,WeatherDisplay:10.37,2013-01-22 10:43:00,
2013-01-22 04:48:00,-15.5,-20.6,30.42,WNW,290,0.0,0.0,77,0.00,CLR,,0.00,0.0,WeatherDisplay:10.37,2013-01-22 10:48:00,
2013-01-22 04:53:00,-15.5,-20.6,30.42,WNW,290,0.0,0.0,77,0.00,CLR,,0.00,0.0,WeatherDisplay:10.37,2013-01-22 10:53:00,
2013-01-22 04:58:00,-15.4,-20.5,30.43,West,277,0.0,0.0,77,0.00,CLR,,0.00,0.0,WeatherDisplay:10.37,2013-01-22 10:58:00,
2013-01-22 05:03:00,-15.4,-20.5,30.43,WNW,289,0.0,0.0,77,0.00,CLR,,0.00,0.0,WeatherDisplay:10.37,2013-01-22 11:03:00,
2013-01-22 05:08:00,-15.4,-20.5,30.43,WNW,289,0.0,0.0,77,0.00,CLR,,0.00,0.0,WeatherDisplay:10.37,2013-01-22 11:08:00,
2013-01-22 05:13:00,-15.4,-20.5,30.43,WSW,251,2.3,2.3,77,0.00,CLR,,0.00,0.0,WeatherDisplay:10.37,2013-01-22 11:13:00,
2013-01-22 05:18:00,-15.4,-20.7,30.43,WSW,256,0.0,0.0,76,0.00,CLR,,0.00,0.0,WeatherDisplay:10.37,2013-01-22 11:18:00,
2013-01-22 05:23:00,-15.5,-20.6,30.43,SSW,208,0.0,0.0,77,0.00,CLR,,0.00,0.0,WeatherDisplay:10.37,2013-01-22 11:23:00,
2013-01-22 05:28:00,-15.5,-20.6,30.43,West,275,0.0,0.0,77,0.00,CLR,,0.00,0.0,WeatherDisplay:10.37,2013-01-22 11:28:00,
2013-01-22 05:33:00,-15.4,-20.5,30.43,NNW,337,0.0,0.0,77,0.00,CLR,,0.00,0.0,WeatherDisplay:10.37,2013-01-22 11:33:00,
2013-01-22 05:38:00,-15.5,-20.6,30.43,NNW,337,0.0,0.0,77,0.00,CLR,,0.00,0.0,WeatherDisplay:10.37,2013-01-22 11:38:00,
2013-01-22 05:43:00,-15.5,-20.8,30.44,West,259,1.1,1.1,76,0.00,CLR,,0.00,0.0,WeatherDisplay:10.37,2013-01-22 11:43:00,
2013-01-22 05:48:00,-15.5,-20.8,30.44,West,259,0.0,0.0,76,0.00,CLR,,0.00,0.0,WeatherDisplay:10.37,2013-01-22 11:48:00,
2013-01-22 05:53:00,-15.5,-20.8,30.44,West,272,0.0,0.0,76,0.00,CLR,,0.00,0.0,WeatherDisplay:10.37,2013-01-22 11:53:00,
2013-01-22 05:58:00,-15.5,-20.8,30.44,WSW,252,2.3,2.3,76,0.00,CLR,,0.00,0.0,WeatherDisplay:10.37,2013-01-22 11:58:00,
2013-01-22 06:03:00,-15.6,-20.9,30.44,NW,321,1.1,1.1,76,0.00,CLR,,0.00,0.0,WeatherDisplay:10.37,2013-01-22 12:03:00,
2013-01-22 06:08:00,-15.6,-20.7,30.45,NW,311,0.0,0.0,77,0.00,CLR,,0.00,0.0,WeatherDisplay:10.37,2013-01-22 12:08:00,
2013-01-22 06:13:00,-15.6,-20.7,30.45,NNE,12,0.0,0.0,77,0.00,CLR,,0.00,0.0,WeatherDisplay:10.37,2013-01-22 12:13:00,
2013-01-22 06:18:00,-15.5,-20.6,30.45,West,265,0.0,0.0,77,0.00,CLR,,0.00,0.0,WeatherDisplay:10.37,2013-01-22 12:18:00,
2013-01-22 06:23:00,-15.6,-20.9,30.45,WSW,255,0.0,0.0,76,0.00,CLR,,0.00,0.0,WeatherDisplay:10.37,2013-01-22 12:23:00,
2013-01-22 06:28:00,-15.6,-20.7,30.45,West,261,0.0,0.0,77,0.00,CLR,,0.00,0.0,WeatherDisplay:10.37,2013-01-22 12:28:00,
2013-01-22 06:33:00,-15.6,-20.7,30.45,WNW,288,0.0,0.0,77,0.00,CLR,,0.00,0.0,WeatherDisplay:10.37,2013-01-22 12:33:00,
2013-01-22 06:38:00,-15.6,-20.7,30.45,NNW,340,1.1,0.0,77,0.00,CLR,,0.00,0.0,WeatherDisplay:10.37,2013-01-22 12:38:00,
2013-01-22 06:43:00,-15.6,-20.7,30.45,WSW,246,1.1,0.0,77,0.00,CLR,,0.00,0.0,WeatherDisplay:10.37,2013-01-22 12:43:00,
2013-01-22 06:48:00,-15.6,-20.9,30.45,NNW,342,2.3,2.3,76,0.00,CLR,,0.00,0.0,WeatherDisplay:10.37,2013-01-22 12:48:00,
2013-01-22 06:53:00,-15.7,-20.8,30.45,SW,235,2.3,0.0,77,0.00,CLR,,0.00,0.0,WeatherDisplay:10.37,2013-01-22 12:53:00,
2013-01-22 06:58:00,-15.7,-21.0,30.45,SSW,199,0.0,0.0,76,0.00,CLR,,0.00,0.0,WeatherDisplay:10.37,2013-01-22 12:58:00,
2013-01-22 07:04:00,-15.8,-21.1,30.45,WSW,254,0.0,0.0,76,0.00,CLR,,0.00,0.0,WeatherDisplay:10.37,2013-01-22 13:04:00,
2013-01-22 07:09:00,-15.9,-21.2,30.45,West,265,3.5,3.5,76,0.00,CLR,,0.00,0.0,WeatherDisplay:10.37,2013-01-22 13:09:00,
2013-01-22 07:14:00,-15.9,-21.2,30.45,NNW,340,0.0,0.0,76,0.00,CLR,,0.00,0.0,WeatherDisplay:10.37,2013-01-22 13:14:00,
2013-01-22 07:19:00,-16.0,-21.3,30.45,West,280,0.0,0.0,76,0.00,CLR,,0.00,0.0,WeatherDisplay:10.37,2013-01-22 13:19:00,
2013-01-22 07:24:00,-16.0,-21.3,30.45,West,279,0.0,0.0,76,0.00,CLR,,0.00,0.0,WeatherDisplay:10.37,2013-01-22 13:24:00,
2013-01-22 07:29:00,-16.0,-21.3,30.45,West,281,0.0,0.0,76,0.00,CLR,,0.00,0.0,WeatherDisplay:10.37,2013-01-22 13:29:00,
2013-01-22 07:34:00,-16.0,-21.3,30.45,West,278,0.0,0.0,76,0.00,CLR,,0.00,0.0,WeatherDisplay:10.37,2013-01-22 13:34:00,
2013-01-22 07:39:00,-16.0,-21.3,30.45,NW,311,0.0,0.0,76,0.00,CLR,,0.00,0.0,WeatherDisplay:10.37,2013-01-22 13:39:00,
2013-01-22 07:44:00,-16.1,-21.4,30.45,SW,229,0.0,0.0,76,0.00,CLR,,0.00,0.0,WeatherDisplay:10.37,2013-01-22 13:44:00,
2013-01-22 07:49:00,-16.2,-21.5,30.45,SW,228,0.0,0.0,76,0.00,CLR,,0.00,5.0,WeatherDisplay:10.37,2013-01-22 13:49:00,
2013-01-22 07:54:00,-16.3,-21.6,30.45,SW,228,0.0,0.0,76,0.00,CLR,,0.00,7.0,WeatherDisplay:10.37,2013-01-22 13:54:00,
2013-01-22 07:59:00,-16.3,-21.6,30.45,West,272,1.1,0.0,76,0.00,CLR,,0.00,9.0,WeatherDisplay:10.37,2013-01-22 13:59:00,
2013-01-22 08:04:00,-16.3,-21.6,30.46,West,271,0.0,0.0,76,0.00,CLR,,0.00,9.0,WeatherDisplay:10.37,2013-01-22 14:04:00,
2013-01-22 08:09:00,-16.2,-21.5,30.45,West,273,0.0,0.0,76,0.00,CLR,,0.00,11.0,WeatherDisplay:10.37,2013-01-22 14:09:00,
2013-01-22 08:14:00,-16.1,-21.4,30.45,WNW,283,0.0,0.0,76,0.00,CLR,,0.00,12.0,WeatherDisplay:10.37,2013-01-22 14:14:00,
2013-01-22 08:19:00,-16.0,-21.1,30.45,WNW,290,0.0,0.0,77,0.00,CLR,,0.00,16.0,WeatherDisplay:10.37,2013-01-22 14:19:00,
2013-01-22 08:24:00,-15.8,-20.9,30.45,NW,313,0.0,0.0,77,0.00,CLR,,0.00,14.0,WeatherDisplay:10.37,2013-01-22 14:24:00,
2013-01-22 08:29:00,-15.6,-20.7,30.45,North,351,3.5,3.5,77,0.00,CLR,,0.00,16.0,WeatherDisplay:10.37,2013-01-22 14:29:00,
2013-01-22 08:34:00,-15.4,-20.5,30.45,WNW,294,2.3,0.0,77,0.00,CLR,,0.00,28.0,WeatherDisplay:10.37,2013-01-22 14:34:00,
2013-01-22 08:39:00,-15.2,-20.3,30.45,WNW,284,2.3,0.0,77,0.00,CLR,,0.00,30.0,WeatherDisplay:10.37,2013-01-22 14:39:00,
2013-01-22 08:45:00,-14.9,-20.0,30.46,WSW,249,2.0,2.0,77,0.00,CLR,,0.00,39.0,WeatherDisplay:10.37,2013-01-22 14:45:00,
2013-01-22 08:50:00,-14.7,-20.1,30.46,WSW,258,0.0,0.0,76,0.00,CLR,,0.00,39.0,WeatherDisplay:10.37,2013-01-22 14:50:00,
2013-01-22 08:55:00,-14.4,-19.5,30.46,North,5,0.0,0.4,77,0.00,CLR,,0.00,39.0,WeatherDisplay:10.37,2013-01-22 14:55:00,
2013-01-22 09:00:00,-14.0,-19.4,30.46,West,259,0.0,0.0,76,0.00,CLR,,0.00,25.0,WeatherDisplay:10.37,2013-01-22 15:00:00,
2013-01-22 09:05:00,-13.8,-19.2,30.46,West,271,0.0,0.0,76,0.00,CLR,,0.00,51.0,WeatherDisplay:10.37,2013-01-22 15:05:00,
2013-01-22 09:10:00,-13.5,-18.9,30.46,WSW,244,2.3,0.0,76,0.00,CLR,,0.00,47.0,WeatherDisplay:10.37,2013-01-22 15:10:00,
2013-01-22 09:15:00,-13.3,-19.0,30.47,West,271,3.5,3.5,75,0.00,CLR,,0.00,42.0,WeatherDisplay:10.37,2013-01-22 15:15:00,
2013-01-22 09:20:00,-13.1,-18.8,30.47,West,269,3.5,3.5,75,0.00,CLR,,0.00,32.0,WeatherDisplay:10.37,2013-01-22 15:20:00,
2013-01-22 09:25:00,-13.1,-18.8,30.47,WSW,256,1.1,0.0,75,0.00,CLR,,0.00,33.0,WeatherDisplay:10.37,2013-01-22 15:25:00,
2013-01-22 09:30:00,-12.9,-18.6,30.47,NNE,15,2.3,2.3,75,0.00,CLR,,0.00,28.0,WeatherDisplay:10.37,2013-01-22 15:30:00,
2013-01-22 09:35:00,-12.7,-18.6,30.47,NW,304,1.1,1.1,74,0.00,CLR,,0.00,26.0,WeatherDisplay:10.37,2013-01-22 15:35:00,
2013-01-22 09:40:00,-12.4,-18.3,30.47,NW,304,0.0,0.0,74,0.00,CLR,,0.00,40.0,WeatherDisplay:10.37,2013-01-22 15:40:00,
2013-01-22 09:45:00,-12.0,-18.0,30.47,NE,37,2.0,2.0,74,0.00,CLR,,0.00,35.0,WeatherDisplay:10.37,2013-01-22 15:45:00,
2013-01-22 09:50:00,-11.8,-18.0,30.48,NNE,19,4.0,4.0,73,0.00,CLR,,0.00,32.0,WeatherDisplay:10.37,2013-01-22 15:50:00,
2013-01-22 09:55:00,-11.7,-17.9,30.48,NNW,333,4.0,4.0,73,0.00,CLR,,0.00,32.0,WeatherDisplay:10.37,2013-01-22 15:55:00,
2013-01-22 10:00:00,-11.5,-17.7,30.48,WNW,293,4.6,4.6,73,0.00,CLR,,0.00,32.0,WeatherDisplay:10.37,2013-01-22 16:00:00,
2013-01-22 10:05:00,-11.5,-18.0,30.48,North,350,2.3,2.3,72,0.00,CLR,,0.00,56.0,WeatherDisplay:10.37,2013-01-22 16:05:00,
2013-01-22 10:10:00,-11.5,-18.0,30.48,NW,308,3.5,3.5,72,0.00,CLR,,0.00,54.0,WeatherDisplay:10.37,2013-01-22 16:10:00,
2013-01-22 10:15:00,-11.3,-17.8,30.48,WNW,295,3.5,3.5,72,0.00,CLR,,0.00,54.0,WeatherDisplay:10.37,2013-01-22 16:15:00,
2013-01-22 10:20:00,-11.0,-17.5,30.48,WNW,283,1.0,0.0,72,0.00,CLR,,0.00,214.0,WeatherDisplay:10.37,2013-01-22 16:20:00,
2013-01-22 10:25:00,-10.5,-17.0,30.48,NNE,17,0.0,0.0,72,0.00,CLR,,0.00,287.0,WeatherDisplay:10.37,2013-01-22 16:25:00,
2013-01-22 10:30:00,-9.9,-16.7,30.49,WNW,298,3.5,3.5,71,0.00,CLR,,0.00,264.0,WeatherDisplay:10.37,2013-01-22 16:30:00,
2013-01-22 10:35:00,-9.5,-16.6,30.49,WNW,293,3.5,3.5,70,0.00,CLR,,0.00,244.0,WeatherDisplay:10.37,2013-01-22 16:35:00,
2013-01-22 10:40:00,-8.8,-16.0,30.49,NW,325,3.5,3.5,70,0.00,CLR,,0.00,330.0,WeatherDisplay:10.37,2013-01-22 16:40:00,
2013-01-22 10:45:00,-8.2,-15.9,30.49,NW,323,1.1,1.1,68,0.00,CLR,,0.00,350.0,WeatherDisplay:10.37,2013-01-22 16:45:00,
2013-01-22 10:50:00,-8.0,-15.8,30.49,NE,49,1.1,1.1,68,0.00,CLR,,0.00,262.0,WeatherDisplay:10.37,2013-01-22 16:50:00,
2013-01-22 10:55:00,-8.3,-16.3,30.49,WNW,288,1.1,1.1,67,0.00,CLR,,0.00,297.0,WeatherDisplay:10.37,2013-01-22 16:55:00,
2013-01-22 11:00:00,-8.4,-16.4,30.48,NNE,17,1.1,1.1,67,0.00,CLR,,0.00,285.0,WeatherDisplay:10.37,2013-01-22 17:00:00,
2013-01-22 11:05:00,-8.1,-15.8,30.48,NW,304,4.6,4.6,68,0.00,CLR,,0.00,151.0,WeatherDisplay:10.37,2013-01-22 17:05:00,
2013-01-22 11:10:00,-8.2,-16.2,30.48,NW,309,4.0,4.0,67,0.00,CLR,,0.00,306.0,WeatherDisplay:10.37,2013-01-22 17:10:00,
2013-01-22 11:15:00,-7.9,-15.9,30.48,West,261,2.3,2.3,67,0.00,CLR,,0.00,374.0,WeatherDisplay:10.37,2013-01-22 17:15:00,
2013-01-22 11:20:00,-7.4,-15.5,30.48,SW,224,2.0,2.0,67,0.00,CLR,,0.00,399.0,WeatherDisplay:10.37,2013-01-22 17:20:00,
2013-01-22 11:25:00,-6.7,-14.8,30.47,WNW,293,0.0,0.0,67,0.00,CLR,,0.00,396.0,WeatherDisplay:10.37,2013-01-22 17:25:00,
2013-01-22 11:30:00,-6.0,-14.4,30.47,West,267,0.0,0.0,66,0.00,CLR,,0.00,411.0,WeatherDisplay:10.37,2013-01-22 17:30:00,
2013-01-22 11:35:00,-5.3,-13.8,30.47,WSW,252,2.3,2.3,66,0.00,CLR,,0.00,413.0,WeatherDisplay:10.37,2013-01-22 17:35:00,
2013-01-22 11:40:00,-5.4,-14.5,30.46,WNW,286,4.0,4.0,64,0.00,CLR,,0.00,415.0,WeatherDisplay:10.37,2013-01-22 17:40:00,
2013-01-22 11:45:00,-5.2,-14.3,30.46,West,274,0.0,0.0,64,0.00,CLR,,0.00,417.0,WeatherDisplay:10.37,2013-01-22 17:45:00,
2013-01-22 11:50:00,-5.0,-14.4,30.46,West,265,4.6,4.6,63,0.00,CLR,,0.00,392.0,WeatherDisplay:10.37,2013-01-22 17:50:00,
2013-01-22 11:55:00,-4.9,-14.3,30.46,WSW,252,1.1,1.1,63,0.00,CLR,,0.00,274.0,WeatherDisplay:10.37,2013-01-22 17:55:00,
2013-01-22 12:00:00,-4.9,-14.3,30.45,NNW,342,2.3,2.3,63,0.00,CLR,,0.00,323.0,WeatherDisplay:10.37,2013-01-22 18:00:00,
2013-01-22 12:05:00,-4.6,-14.0,30.45,WNW,299,2.3,2.3,63,0.00,CLR,,0.00,165.0,WeatherDisplay:10.37,2013-01-22 18:05:00,
2013-01-22 12:10:00,-4.6,-14.0,30.44,WSW,254,1.1,1.1,63,0.00,CLR,,0.00,81.0,WeatherDisplay:10.37,2013-01-22 18:10:00,
2013-01-22 12:15:00,-4.3,-13.4,30.44,WNW,284,3.5,3.5,64,0.00,CLR,,0.00,39.0,WeatherDisplay:10.37,2013-01-22 18:15:00,
2013-01-22 12:20:00,-4.1,-13.5,30.44,West,272,1.1,0.0,63,0.00,CLR,,0.00,116.0,WeatherDisplay:10.37,2013-01-22 18:20:00,
2013-01-22 12:25:00,-3.9,-13.3,30.44,South,189,2.3,2.3,63,0.00,CLR,,0.00,39.0,WeatherDisplay:10.37,2013-01-22 18:25:00,
2013-01-22 12:30:00,-3.8,-13.6,30.44,WSW,251,1.1,1.1,62,0.00,CLR,,0.00,144.0,WeatherDisplay:10.37,2013-01-22 18:30:00,
2013-01-22 12:35:00,-3.7,-13.8,30.44,WSW,247,3.5,3.5,61,0.00,CLR,,0.00,70.0,WeatherDisplay:10.37,2013-01-22 18:35:00,
2013-01-22 12:40:00,-3.5,-13.3,30.43,NNW,340,1.1,1.1,62,0.00,CLR,,0.00,167.0,WeatherDisplay:10.37,2013-01-22 18:40:00,
2013-01-22 12:45:00,-3.0,-12.5,30.43,WSW,245,1.1,1.1,63,0.00,CLR,,0.00,58.0,WeatherDisplay:10.37,2013-01-22 18:45:00,
2013-01-22 12:50:00,-2.7,-12.5,30.43,NW,306,1.1,1.1,62,0.00,CLR,,0.00,77.0,WeatherDisplay:10.37,2013-01-22 18:50:00,
2013-01-22 12:55:00,-2.4,-12.2,30.43,West,279,4.6,4.6,62,0.00,CLR,,0.00,72.0,WeatherDisplay:10.37,2013-01-22 18:55:00,
2013-01-22 13:00:00,-2.5,-13.0,30.43,WSW,252,1.1,1.1,60,0.00,CLR,,0.00,81.0,WeatherDisplay:10.37,2013-01-22 19:00:00,
2013-01-22 13:05:00,-2.1,-12.3,30.43,SE,138,2.3,0.0,61,0.00,CLR,,0.00,81.0,WeatherDisplay:10.37,2013-01-22 19:05:00,
2013-01-22 13:11:00,-1.6,-11.8,30.44,WSW,244,3.5,3.5,61,0.00,CLR,,0.00,155.0,WeatherDisplay:10.37,2013-01-22 19:11:00,
2013-01-22 13:16:00,-1.5,-12.0,30.43,West,268,1.1,1.1,60,0.00,CLR,,0.00,104.0,WeatherDisplay:10.37,2013-01-22 19:16:00,
2013-01-22 13:21:00,-1.2,-11.8,30.43,WSW,254,3.5,3.5,60,0.00,CLR,,0.00,121.0,WeatherDisplay:10.37,2013-01-22 19:21:00,
2013-01-22 13:26:00,-1.2,-11.8,30.43,WSW,250,2.3,2.3,60,0.00,CLR,,0.00,97.0,WeatherDisplay:10.37,2013-01-22 19:26:00,
2013-01-22 13:31:00,-0.7,-11.3,30.43,WSW,239,1.1,1.1,60,0.00,CLR,,0.00,84.0,WeatherDisplay:10.37,2013-01-22 19:31:00,
2013-01-22 13:36:00,-0.5,-11.4,30.43,West,259,3.5,3.5,59,0.00,CLR,,0.00,88.0,WeatherDisplay:10.37,2013-01-22 19:36:00,
2013-01-22 13:41:00,-0.4,-11.7,30.43,NNW,342,4.6,4.6,58,0.00,CLR,,0.00,100.0,WeatherDisplay:10.37,2013-01-22 19:41:00,
2013-01-22 13:46:00,-0.2,-11.5,30.43,NW,318,4.6,4.6,58,0.00,CLR,,0.00,200.0,WeatherDisplay:10.37,2013-01-22 19:46:00,
2013-01-22 13:51:00,-0.3,-11.6,30.43,WNW,290,4.6,4.6,58,0.00,CLR,,0.00,97.0,WeatherDisplay:10.37,2013-01-22 19:51:00,
2013-01-22 13:56:00,-0.6,-12.2,30.43,SSW,202,3.5,3.5,57,0.00,CLR,,0.00,53.0,WeatherDisplay:10.37,2013-01-22 19:56:00,
2013-01-22 14:01:00,-0.7,-12.0,30.43,West,260,1.1,1.1,58,0.00,CLR,,0.00,63.0,WeatherDisplay:10.37,2013-01-22 20:01:00,
2013-01-22 14:06:00,-0.4,-11.3,30.43,SSE,165,2.3,2.3,59,0.00,CLR,,0.00,97.0,WeatherDisplay:10.37,2013-01-22 20:06:00,
2013-01-22 14:11:00,-0.1,-11.0,30.43,SSW,207,1.1,0.0,59,0.00,CLR,,0.00,241.0,WeatherDisplay:10.37,2013-01-22 20:11:00,
2013-01-22 14:16:00,0.1,-11.2,30.43,SSW,213,6.0,6.0,58,0.00,CLR,,0.00,91.0,WeatherDisplay:10.37,2013-01-22 20:16:00,
2013-01-22 14:22:00,0.0,-11.6,30.43,West,270,3.5,0.0,57,0.00,CLR,,0.00,77.0,WeatherDisplay:10.37,2013-01-22 20:22:00,
2013-01-22 14:27:00,-0.1,-11.4,30.43,SE,146,3.5,3.5,58,0.00,CLR,,0.00,90.0,WeatherDisplay:10.37,2013-01-22 20:27:00,
2013-01-22 14:32:00,-0.2,-11.8,30.43,WSW,246,6.0,6.0,57,0.00,CLR,,0.00,93.0,WeatherDisplay:10.37,2013-01-22 20:32:00,
2013-01-22 14:37:00,-0.5,-11.8,30.43,NW,312,4.6,4.6,58,0.00,CLR,,0.00,70.0,WeatherDisplay:10.37,2013-01-22 20:37:00,
2013-01-22 14:42:00,-0.5,-11.4,30.43,West,260,2.3,2.3,59,0.00,CLR,,0.00,127.0,WeatherDisplay:10.37,2013-01-22 20:42:00,
2013-01-22 14:47:00,-0.5,-11.1,30.43,WSW,248,4.0,4.0,60,0.00,CLR,,0.00,95.0,WeatherDisplay:10.37,2013-01-22 20:47:00,
2013-01-22 14:52:00,-0.5,-11.8,30.42,WSW,242,1.1,0.0,58,0.00,CLR,,0.00,83.0,WeatherDisplay:10.37,2013-01-22 20:52:00,
2013-01-22 14:57:00,-0.5,-11.4,30.43,SW,234,3.5,3.5,59,0.00,CLR,,0.00,93.0,WeatherDisplay:10.37,2013-01-22 20:57:00,
2013-01-22 15:02:00,-0.4,-11.3,30.43,SW,225,0.0,0.0,59,0.00,CLR,,0.00,84.0,WeatherDisplay:10.37,2013-01-22 21:02:00,
2013-01-22 15:07:00,-0.4,-11.7,30.43,WSW,256,1.0,1.0,58,0.00,CLR,,0.00,58.0,WeatherDisplay:10.37,2013-01-22 21:07:00,
2013-01-22 15:12:00,-0.4,-11.7,30.43,SW,232,4.6,4.6,58,0.00,CLR,,0.00,39.0,WeatherDisplay:10.37,2013-01-22 21:12:00,
2013-01-22 15:17:00,-0.3,-11.6,30.43,West,271,2.3,2.3,58,0.00,CLR,,0.00,30.0,WeatherDisplay:10.37,2013-01-22 21:17:00,
2013-01-22 15:22:00,-0.3,-11.6,30.42,SSW,199,1.1,0.0,58,0.00,CLR,,0.00,25.0,WeatherDisplay:10.37,2013-01-22 21:22:00,
2013-01-22 15:27:00,-0.1,-11.4,30.42,WSW,257,4.6,4.6,58,0.00,CLR,,0.00,23.0,WeatherDisplay:10.37,2013-01-22 21:27:00,
2013-01-22 15:32:00,-0.1,-11.4,30.42,SSE,159,3.5,3.5,58,0.00,CLR,,0.00,23.0,WeatherDisplay:10.37,2013-01-22 21:32:00,
2013-01-22 15:37:00,0.0,-11.0,30.42,SSE,151,3.5,3.5,59,0.00,CLR,,0.00,21.0,WeatherDisplay:10.37,2013-01-22 21:37:00,
2013-01-22 15:42:00,0.0,-11.3,30.42,West,274,3.5,3.5,58,0.00,CLR,,0.00,21.0,WeatherDisplay:10.37,2013-01-22 21:42:00,
2013-01-22 15:47:00,0.1,-11.2,30.42,SSW,211,0.0,0.0,58,0.00,CLR,,0.00,19.0,WeatherDisplay:10.37,2013-01-22 21:47:00,
2013-01-22 15:52:00,0.0,-11.3,30.42,WSW,249,1.1,0.0,58,0.00,CLR,,0.00,18.0,WeatherDisplay:10.37,2013-01-22 21:52:00,
2013-01-22 15:58:00,-0.2,-11.5,30.42,WSW,256,3.5,0.0,58,0.00,CLR,,0.00,14.0,WeatherDisplay:10.37,2013-01-22 21:58:00,
2013-01-22 16:03:00,-0.3,-11.6,30.42,WSW,256,0.0,0.0,58,0.00,CLR,,0.00,12.0,WeatherDisplay:10.37,2013-01-22 22:03:00,
2013-01-22 16:08:00,-0.5,-11.1,30.43,West,261,3.5,3.5,60,0.00,CLR,,0.00,14.0,WeatherDisplay:10.37,2013-01-22 22:08:00,
2013-01-22 16:13:00,-0.7,-11.6,30.43,West,276,2.3,2.3,59,0.00,CLR,,0.00,14.0,WeatherDisplay:10.37,2013-01-22 22:13:00,
2013-01-22 16:18:00,-0.8,-11.7,30.43,WSW,254,3.5,3.5,59,0.00,CLR,,0.00,11.0,WeatherDisplay:10.37,2013-01-22 22:18:00,
2013-01-22 16:23:00,-1.0,-11.6,30.42,West,276,4.6,4.6,60,0.00,CLR,,0.00,12.0,WeatherDisplay:10.37,2013-01-22 22:23:00,
2013-01-22 16:28:00,-1.1,-11.7,30.42,WSW,257,0.0,0.0,60,0.00,CLR,,0.00,11.0,WeatherDisplay:10.37,2013-01-22 22:28:00,
2013-01-22 16:33:00,-1.2,-11.4,30.43,SW,228,2.3,2.3,61,0.00,CLR,,0.00,11.0,WeatherDisplay:10.37,2013-01-22 22:33:00,
2013-01-22 16:38:00,-1.4,-11.6,30.43,WSW,249,0.0,0.0,61,0.00,CLR,,0.00,11.0,WeatherDisplay:10.37,2013-01-22 22:38:00,
2013-01-22 16:43:00,-1.6,-11.8,30.42,SSW,207,1.1,0.0,61,0.00,CLR,,0.00,5.0,WeatherDisplay:10.37,2013-01-22 22:43:00,
2013-01-22 16:48:00,-1.7,-11.6,30.42,West,266,2.3,2.3,62,0.00,CLR,,0.00,0.0,WeatherDisplay:10.37,2013-01-22 22:48:00,
2013-01-22 16:53:00,-1.9,-11.8,30.42,West,264,0.0,0.0,62,0.00,CLR,,0.00,0.0,WeatherDisplay:10.37,2013-01-22 22:53:00,
2013-01-22 16:58:00,-2.2,-12.0,30.42,West,264,0.0,0.0,62,0.00,CLR,,0.00,0.0,WeatherDisplay:10.37,2013-01-22 22:58:00,
2013-01-22 17:03:00,-2.5,-12.0,30.42,West,263,0.0,0.0,63,0.00,CLR,,0.00,0.0,WeatherDisplay:10.37,2013-01-22 23:03:00,
2013-01-22 17:08:00,-2.7,-12.2,30.42,WSW,253,0.0,0.0,63,0.00,CLR,,0.00,0.0,WeatherDisplay:10.37,2013-01-22 23:08:00,
2013-01-22 17:13:00,-2.9,-12.1,30.42,WSW,253,0.0,0.0,64,0.00,CLR,,0.00,0.0,WeatherDisplay:10.37,2013-01-22 23:13:00,
2013-01-22 17:18:00,-3.1,-12.6,30.42,WSW,253,0.0,0.0,63,0.00,CLR,,0.00,0.0,WeatherDisplay:10.37,2013-01-22 23:18:00,
2013-01-22 17:23:00,-3.3,-12.5,30.42,WSW,253,0.0,0.0,64,0.00,CLR,,0.00,0.0,WeatherDisplay:10.37,2013-01-22 23:23:00,
2013-01-22 17:28:00,-3.6,-12.7,30.42,WSW,253,0.0,0.0,64,0.00,CLR,,0.00,0.0,WeatherDisplay:10.37,2013-01-22 23:28:00,
2013-01-22 17:33:00,-3.9,-13.0,30.42,WSW,253,0.0,0.0,64,0.00,CLR,,0.00,0.0,WeatherDisplay:10.37,2013-01-22 23:33:00,
2013-01-22 17:38:00,-4.4,-13.2,30.42,WSW,253,0.0,0.0,65,0.00,CLR,,0.00,0.0,WeatherDisplay:10.37,2013-01-22 23:38:00,
2013-01-22 17:43:00,-4.8,-13.6,30.43,WSW,253,0.0,0.0,65,0.00,CLR,,0.00,0.0,WeatherDisplay:10.37,2013-01-22 23:43:00,
2013-01-22 17:48:00,-5.2,-13.7,30.43,WSW,253,0.0,0.0,66,0.00,CLR,,0.00,0.0,WeatherDisplay:10.37,2013-01-22 23:48:00,
2013-01-22 17:53:00,-5.5,-13.6,30.43,WSW,253,0.0,0.0,67,0.00,CLR,,0.00,0.0,WeatherDisplay:10.37,2013-01-22 23:53:00,
2013-01-22 17:58:00,-5.8,-13.6,30.43,WSW,253,0.0,0.0,68,0.00,CLR,,0.00,0.0,WeatherDisplay:10.37,2013-01-22 23:58:00,
2013-01-22 18:03:00,-6.2,-14.0,30.42,WSW,253,0.0,0.0,68,0.00,CLR,,0.00,0.0,WeatherDisplay:10.37,2013-01-23 00:03:00,
2013-01-22 18:08:00,-6.5,-14.0,30.43,WSW,253,0.0,0.0,69,0.00,CLR,,0.00,0.0,WeatherDisplay:10.37,2013-01-23 00:08:00,
2013-01-22 18:13:00,-6.6,-13.8,30.43,WSW,253,0.0,0.0,70,0.00,CLR,,0.00,0.0,WeatherDisplay:10.37,2013-01-23 00:13:00,
2013-01-22 18:18:00,-6.9,-14.1,30.42,WSW,253,0.0,0.0,70,0.00,CLR,,0.00,0.0,WeatherDisplay:10.37,2013-01-23 00:18:00,
2013-01-22 18:23:00,-7.1,-14.3,30.42,WSW,253,0.0,0.0,70,0.00,CLR,,0.00,0.0,WeatherDisplay:10.37,2013-01-23 00:23:00,
2013-01-22 18:28:00,-7.2,-14.4,30.42,WSW,253,0.0,0.0,70,0.00,CLR,,0.00,0.0,WeatherDisplay:10.37,2013-01-23 00:28:00,
2013-01-22 18:33:00,-7.3,-14.2,30.42,WSW,253,0.0,0.0,71,0.00,CLR,,0.00,0.0,WeatherDisplay:10.37,2013-01-23 00:33:00,
2013-01-22 18:38:00,-7.4,-14.0,30.42,WSW,253,0.0,0.0,72,0.00,CLR,,0.00,0.0,WeatherDisplay:10.37,2013-01-23 00:38:00,
2013-01-22 18:43:00,-7.5,-14.1,30.42,WSW,253,0.0,0.0,72,0.00,CLR,,0.00,0.0,WeatherDisplay:10.37,2013-01-23 00:43:00,
2013-01-22 18:48:00,-7.4,-13.8,30.42,WSW,253,0.0,0.0,73,0.00,CLR,,0.00,0.0,WeatherDisplay:10.37,2013-01-23 00:48:00,
2013-01-22 18:53:00,-7.3,-13.7,30.42,WSW,253,0.0,0.0,73,0.00,CLR,,0.00,0.0,WeatherDisplay:10.37,2013-01-23 00:53:00,
2013-01-22 18:58:00,-7.2,-13.6,30.42,WSW,253,0.0,0.0,73,0.00,CLR,,0.00,0.0,WeatherDisplay:10.37,2013-01-23 00:58:00,
2013-01-22 19:03:00,-7.2,-13.8,30.42,WSW,253,0.0,0.0,72,0.00,CLR,,0.00,0.0,WeatherDisplay:10.37,2013-01-23 01:03:00,
2013-01-22 19:08:00,-7.2,-13.8,30.41,WSW,253,0.0,0.0,72,0.00,CLR,,0.00,0.0,WeatherDisplay:10.37,2013-01-23 01:08:00,
2013-01-22 19:13:00,-7.2,-13.8,30.41,WSW,253,0.0,0.0,72,0.00,CLR,,0.00,0.0,WeatherDisplay:10.37,2013-01-23 01:13:00,
2013-01-22 19:18:00,-7.3,-13.7,30.41,WSW,253,0.0,0.0,73,0.00,CLR,,0.00,0.0,WeatherDisplay:10.37,2013-01-23 01:18:00,
2013-01-22 19:23:00,-7.4,-13.8,30.41,WSW,253,0.0,0.0,73,0.00,CLR,,0.00,0.0,WeatherDisplay:10.37,2013-01-23 01:23:00,
2013-01-22 19:28:00,-7.6,-14.2,30.41,WSW,253,0.0,0.0,72,0.00,CLR,,0.00,0.0,WeatherDisplay:10.37,2013-01-23 01:28:00,
2013-01-22 19:33:00,-7.8,-14.2,30.41,WSW,253,0.0,0.0,73,0.00,CLR,,0.00,0.0,WeatherDisplay:10.37,2013-01-23 01:33:00,
2013-01-22 19:38:00,-8.0,-14.3,30.41,WSW,253,0.0,0.0,73,0.00,CLR,,0.00,0.0,WeatherDisplay:10.37,2013-01-23 01:38:00,
2013-01-22 19:43:00,-8.2,-14.5,30.41,WSW,253,0.0,0.0,73,0.00,CLR,,0.00,0.0,WeatherDisplay:10.37,2013-01-23 01:43:00,
2013-01-22 19:48:00,-8.2,-14.5,30.40,WSW,253,0.0,0.0,73,0.00,CLR,,0.00,0.0,WeatherDisplay:10.37,2013-01-23 01:48:00,
2013-01-22 19:54:00,-8.3,-14.6,30.40,WSW,253,0.0,0.0,73,0.00,CLR,,0.00,0.0,WeatherDisplay:10.37,2013-01-23 01:54:00,
2013-01-22 19:59:00,-8.4,-14.7,30.40,WSW,253,0.0,0.0,73,0.00,CLR,,0.00,0.0,WeatherDisplay:10.37,2013-01-23 01:59:00,
2013-01-22 20:04:00,-8.5,-14.8,30.40,WSW,253,0.0,0.0,73,0.00,CLR,,0.00,0.0,WeatherDisplay:10.37,2013-01-23 02:04:00,
2013-01-22 20:09:00,-8.6,-14.7,30.40,WSW,253,0.0,0.0,74,0.00,CLR,,0.00,0.0,WeatherDisplay:10.37,2013-01-23 02:09:00,
2013-01-22 20:14:00,-8.8,-14.9,30.39,WSW,253,0.0,0.0,74,0.00,CLR,,0.00,0.0,WeatherDisplay:10.37,2013-01-23 02:14:00,
2013-01-22 20:19:00,-9.0,-15.0,30.40,WSW,253,0.0,0.0,74,0.00,CLR,,0.00,0.0,WeatherDisplay:10.37,2013-01-23 02:19:00,
2013-01-22 20:24:00,-9.4,-15.2,30.39,WSW,253,0.0,0.0,75,0.00,CLR,,0.00,0.0,WeatherDisplay:10.37,2013-01-23 02:24:00,
2013-01-22 20:29:00,-9.7,-15.5,30.39,WSW,253,0.0,0.0,75,0.00,CLR,,0.00,0.0,WeatherDisplay:10.37,2013-01-23 02:29:00,
2013-01-22 20:34:00,-9.8,-15.6,30.40,WSW,253,0.0,0.0,75,0.00,CLR,,0.00,0.0,WeatherDisplay:10.37,2013-01-23 02:34:00,
2013-01-22 20:39:00,-10.0,-15.8,30.40,WSW,253,0.0,0.0,75,0.00,CLR,,0.00,0.0,WeatherDisplay:10.37,2013-01-23 02:39:00,
2013-01-22 20:44:00,-10.1,-15.6,30.40,WSW,253,0.0,0.0,76,0.00,CLR,,0.00,0.0,WeatherDisplay:10.37,2013-01-23 02:44:00,
2013-01-22 20:49:00,-10.2,-15.7,30.39,WSW,253,0.0,0.0,76,0.00,CLR,,0.00,0.0,WeatherDisplay:10.37,2013-01-23 02:49:00,
2013-01-22 20:54:00,-10.3,-15.8,30.39,WSW,253,0.0,0.0,76,0.00,CLR,,0.00,0.0,WeatherDisplay:10.37,2013-01-23 02:54:00,
2013-01-22 20:59:00,-10.3,-15.8,30.39,WSW,253,0.0,0.0,76,0.00,CLR,,0.00,0.0,WeatherDisplay:10.37,2013-01-23 02:59:00,
2013-01-22 21:04:00,-10.3,-15.5,30.39,WSW,253,0.0,0.0,77,0.00,CLR,,0.00,0.0,WeatherDisplay:10.37,2013-01-23 03:04:00,
2013-01-22 21:09:00,-10.3,-15.5,30.39,WSW,253,0.0,0.0,77,0.00,CLR,,0.00,0.0,WeatherDisplay:10.37,2013-01-23 03:09:00,
2013-01-22 21:14:00,-10.5,-16.0,30.39,WSW,253,0.0,0.0,76,0.00,CLR,,0.00,0.0,WeatherDisplay:10.37,2013-01-23 03:14:00,
2013-01-22 21:19:00,-10.7,-16.2,30.38,WSW,253,0.0,0.0,76,0.00,CLR,,0.00,0.0,WeatherDisplay:10.37,2013-01-23 03:19:00,
2013-01-22 21:24:00,-11.1,-16.6,30.38,WSW,253,0.0,0.0,76,0.00,CLR,,0.00,0.0,WeatherDisplay:10.37,2013-01-23 03:24:00,
2013-01-22 21:29:00,-11.3,-16.8,30.38,WSW,253,0.0,0.0,76,0.00,CLR,,0.00,0.0,WeatherDisplay:10.37,2013-01-23 03:29:00,
2013-01-22 21:34:00,-11.5,-16.7,30.38,WSW,253,0.0,0.0,77,0.00,CLR,,0.00,0.0,WeatherDisplay:10.37,2013-01-23 03:34:00,
2013-01-22 21:39:00,-11.5,-16.7,30.38,WSW,253,0.0,0.0,77,0.00,CLR,,0.00,0.0,WeatherDisplay:10.37,2013-01-23 03:39:00,
2013-01-22 21:44:00,-11.5,-16.4,30.38,WSW,253,0.0,0.0,78,0.00,CLR,,0.00,0.0,WeatherDisplay:10.37,2013-01-23 03:44:00,
2013-01-22 21:49:00,-11.4,-16.3,30.38,WSW,253,0.0,0.0,78,0.00,CLR,,0.00,0.0,WeatherDisplay:10.37,2013-01-23 03:49:00,
2013-01-22 21:54:00,-11.4,-16.3,30.38,WSW,253,0.0,0.0,78,0.00,CLR,,0.00,0.0,WeatherDisplay:10.37,2013-01-23 03:54:00,
2013-01-22 21:59:00,-11.4,-16.3,30.39,WSW,253,0.0,0.0,78,0.00,CLR,,0.00,0.0,WeatherDisplay:10.37,2013-01-23 03:59:00,
2013-01-22 22:04:00,-11.5,-16.4,30.39,WSW,253,0.0,0.0,78,0.00,CLR,,0.00,0.0,WeatherDisplay:10.37,2013-01-23 04:04:00,
2013-01-22 22:09:00,-11.5,-16.4,30.38,WSW,253,0.0,0.0,78,0.00,CLR,,0.00,0.0,WeatherDisplay:10.37,2013-01-23 04:09:00,
2013-01-22 22:14:00,-11.5,-16.4,30.38,WSW,253,0.0,0.0,78,0.00,CLR,,0.00,0.0,WeatherDisplay:10.37,2013-01-23 04:14:00,
2013-01-22 22:19:00,-11.5,-16.7,30.38,WSW,253,0.0,0.0,77,0.00,CLR,,0.00,0.0,WeatherDisplay:10.37,2013-01-23 04:19:00,
2013-01-22 22:24:00,-11.7,-16.9,30.38,WSW,253,0.0,0.0,77,0.00,CLR,,0.00,0.0,WeatherDisplay:10.37,2013-01-23 04:24:00,
2013-01-22 22:29:00,-11.7,-16.6,30.39,WSW,253,0.0,0.0,78,0.00,CLR,,0.00,0.0,WeatherDisplay:10.37,2013-01-23 04:29:00,
2013-01-22 22:34:00,-11.7,-16.6,30.38,WSW,253,0.0,0.0,78,0.00,CLR,,0.00,0.0,WeatherDisplay:10.37,2013-01-23 04:34:00,
2013-01-22 22:39:00,-11.8,-16.7,30.38,WSW,253,0.0,0.0,78,0.00,CLR,,0.00,0.0,WeatherDisplay:10.37,2013-01-23 04:39:00,
2013-01-22 22:44:00,-12.0,-17.2,30.38,WSW,253,0.0,0.0,77,0.00,CLR,,0.00,0.0,WeatherDisplay:10.37,2013-01-23 04:44:00,
2013-01-22 22:49:00,-12.4,-17.6,30.38,WSW,253,0.0,0.0,77,0.00,CLR,,0.00,0.0,WeatherDisplay:10.37,2013-01-23 04:49:00,
2013-01-22 22:54:00,-12.7,-17.9,30.38,WSW,253,0.0,0.0,77,0.00,CLR,,0.00,0.0,WeatherDisplay:10.37,2013-01-23 04:54:00,
2013-01-22 22:59:00,-13.0,-18.2,30.39,WSW,253,0.0,0.0,77,0.00,CLR,,0.00,0.0,WeatherDisplay:10.37,2013-01-23 04:59:00,
2013-01-22 23:00:00,-13.0,-18.2,30.39,WSW,253,0.0,0.0,77,0.00,CLR,,0.00,0.0,WeatherDisplay:10.37,2013-01-23 05:00:00,
2013-01-22 23:03:00,-13.1,-18.3,30.38,WSW,253,0.0,0.0,77,0.00,CLR,,0.00,0.0,WeatherDisplay:10.37,2013-01-23 05:03:00,
2013-01-22 23:08:00,-13.4,-18.5,30.38,WSW,253,0.0,0.0,77,0.00,CLR,,0.00,0.0,WeatherDisplay:10.37,2013-01-23 05:08:00,
2013-01-22 23:13:00,-13.6,-18.7,30.38,WSW,253,0.0,0.0,77,0.00,CLR,,0.00,0.0,WeatherDisplay:10.37,2013-01-23 05:13:00,
2013-01-22 23:18:00,-13.7,-18.8,30.38,WSW,253,0.0,0.0,77,0.00,CLR,,0.00,0.0,WeatherDisplay:10.37,2013-01-23 05:18:00,
2013-01-22 23:23:00,-13.8,-18.7,30.38,WSW,253,0.0,0.0,78,0.00,CLR,,0.00,0.0,WeatherDisplay:10.37,2013-01-23 05:23:00,
2013-01-22 23:28:00,-14.0,-18.9,30.38,WSW,253,0.0,0.0,78,0.00,CLR,,0.00,0.0,WeatherDisplay:10.37,2013-01-23 05:28:00,
2013-01-22 23:33:00,-14.2,-19.3,30.38,WSW,253,0.0,0.0,77,0.00,CLR,,0.00,0.0,WeatherDisplay:10.37,2013-01-23 05:33:00,
2013-01-22 23:38:00,-14.4,-19.5,30.38,WSW,253,0.0,0.0,77,0.00,CLR,,0.00,0.0,WeatherDisplay:10.37,2013-01-23 05:38:00,
2013-01-22 23:43:00,-14.6,-19.7,30.38,WSW,253,0.0,0.0,77,0.00,CLR,,0.00,0.0,WeatherDisplay:10.37,2013-01-23 05:43:00,
2013-01-22 23:48:00,-14.8,-19.9,30.37,WSW,253,0.0,0.0,77,0.00,CLR,,0.00,0.0,WeatherDisplay:10.37,2013-01-23 05:48:00,
2013-01-22 23:53:00,-15.2,-20.3,30.37,WSW,253,0.0,0.0,77,0.00,CLR,,0.00,0.0,WeatherDisplay:10.37,2013-01-23 05:53:00,
2013-01-22 23:58:00,-15.5,-20.6,30.37,WSW,253,0.0,0.0,77,0.00,CLR,,0.00,0.0,WeatherDisplay:10.37,2013-01-23 05:58:00,